Sie sind vermutlich noch nicht im Forum angemeldet - Klicken Sie hier um sich kostenlos anzumelden  

Synchrondatenbank (von Arne Kaul) | Deutsche Synchronkartei | Seriensynchron - SeSyDaB | dubDB | Die vergessenen Filme || Datenschutz
Sie können sich hier anmelden
Dieses Forum hat 3.273 Themen
und zur Zeit 38.746 Beiträge
Sie haben keine Schreibrechte
 Spielfilme 1990 bis 2009  »Neues Thema erstellen«
Forum Information
   Betreff Absender Antworten Zugriffe Letzter Beitrag
Die Rotkäppchen-Verschwörung (1, 2) Mew Mew 18 3.219 12.06.2018 19:03
Die verlorene Welt (CDN 1992) Silenzio 3 157 06.06.2018 23:49
Tremors - Im Land der Raketenwürmer (1990) Ohne Wiederkehr 11 1.165 04.06.2018 18:30
Schrei in der Stille (USA 1990) Silenzio 8 389 04.06.2018 16:26
Buried Alive - Lebendig begraben (1990) Wilkins 10 339 01.06.2018 22:51
Body Bags (1993) dlh 14 1.098 29.05.2018 18:24
Perdita Durango (1997) Wilkins 5 195 28.05.2018 01:20
Die schrillen Vier auf Achse (1, 2) VanToby 16 1.708 27.05.2018 22:59
Aktion Mutante (ES 1993) Wilkins 7 331 27.05.2018 03:04
"In the Cut" [SPEKULATION] (1, 2) Hendrik Meyerhof 23 1.242 25.05.2018 02:41
Highlander 3-5 Torben 4 172 23.05.2018 00:21
Mars Attacks! (USA 1996) VanToby 4 244 22.05.2018 16:58
Shadow of the Vampire (2000) Wilkins 4 229 20.05.2018 14:07
Code Condor (I 1990) Silenzio 0 97 18.05.2018 23:45
Der Dummschwätzer (USA 1997) VanToby 4 194 13.05.2018 23:04
Love & a .45 (1994) dlh 3 247 01.05.2018 10:26
Hot Shots 1+2 (USA 1991-1993) (1, 2) VanToby 26 2.223 30.04.2018 22:27
Küss den Frosch (The Princess And The Frog; USA, 2009) (1, 2, 3, 4, 5, 6, Letzte Seite) Isch 137 10.340 29.04.2018 15:57
Direct Hit - Im Todeskreis der Angst (USA 1994) Silenzio 0 83 26.04.2018 23:26
Bill & Teds verrückte Reise in die Zukunft (1991) dlh 12 623 25.04.2018 17:03
The Last Match - Der letzte Fight (I/USA 1991) Silenzio 0 105 22.04.2018 22:40
Dario Argentos "Sleepless" (2001) (1, 2) Slartibartfast 16 776 21.04.2018 11:42
Serial Mom - Warum lässt Mama das Morden nicht? (1993) dlh 6 555 19.04.2018 18:45
Story Of Ricky (1, 2) ElEf 23 1.178 17.04.2018 15:41
Prayers for Bobby (2008; DF: 2009) Frank Brenner 2 110 17.04.2018 15:24
Bolt - Ein Hund für alle Fälle (2008) Frank Brenner 11 1.433 15.04.2018 13:09
LOONEY TUNES Back In Action neusynchrosmachenalleskaputt 14 1.301 10.04.2018 15:47
Breaking the Waves (DK/NO/SE/FR/NL 1996) Silenzio 3 119 10.04.2018 01:22
Freundschaft, Liebe, Rache (Vento di mare) Gianfranco Mingozzi 1991 kogenta 0 77 10.04.2018 01:13
Lapitch, der kleine Schuhmacher (D/HR 1997) Edigrieg 5 159 08.04.2018 19:41
Power Rangers - Der Film (USA, 1995) hudemx 12 430 04.04.2018 17:46
Bube, Dame, Koenig grAS (Lock, stock and two smoking barrels, GB) rote Blume 13 1.350 04.04.2018 10:28
Hellraiser III: Hell on Earth (1992) WasGehtSieDasAn 11 573 30.03.2018 19:30
Mr. Jones (USA 1993) Silenzio 0 136 26.03.2018 22:24
Teuflisch (USA 2000) VanToby 3 164 26.03.2018 01:37
2 Tage in L.A. (USA 1996) Wilkins 0 135 25.03.2018 17:08
Barbie als Prinzessin und das Dorfmädchen Besetzungsliste Mew Mew 1 1.171 21.03.2018 21:41
Die Asche meiner Mutter (1999; DF: 2000) Frank Brenner 3 193 20.03.2018 20:14
Nightmare Lover (USA 1993) Silenzio 5 165 19.03.2018 02:09
Bernard & Bianca im Känguruland (1990) Edigrieg 3 280 17.03.2018 12:49
 Sprung Seite « zurück  1  2  3  4  5  6 - 82  weiter »

Farb-Legende: blau = Spekulation, orange = Trailer-Besetzung, grün = endgültige Besetzung, rot = Korrektur/Ergänzung zur endgültigen Besetzung

Wir lie... also, wir finden Synchron ganz in Ordnung.
Erreichbar unter
215072.homepagemodules.de -- synchron-forum.de.vu


Weitere Smileys auf www.smilie-harvester.de
Xobor Forum Software von Xobor | Forum, Fotos, Chat und mehr mit Xobor